SYRACUSE 4A

Last updated on Tue Sep 22 2026 00:03:15 GMT+0000 (Coordinated Universal Time)

1 49333U 21095B 26264.14170914 .00000000 00000+0 00000+0 0 9994 2 49333 0.0208 175.7669 0001553 359.0124 281.7670 1.00269479 18900
UTC large
Height (km)
Speed (km/s)
/
Latitude / Longitude
Inclination (degrees)
Orbital Period (minutes)
Azimuth
Elevation
Range (km)
Doppler Factor

Next 0 passes for location: London (51.5072 / 0.1276)

No passes found over London.
SYRACUSE 4A